Location: Bismarck
(46.7731°N, 100.8200°W)
Time: 05:48:52
(UTC-06:00)

Daily predictions for brighter satellites

Satellite Brightness Start Highest point End
(mag) Time Altitude Azimuth Time Altitude Azimuth Time Altitude Azimuth
ADEOS Rocket 4.2 03:27:04 10° NNE 03:31:23 40° NE 03:31:23 40° NE
Cosmos 2369 Rocket 3.8 03:41:22 31° NE 03:41:22 31° NE 03:44:20 10° NE
Okean O Rocket 4.4 03:40:45 10° NE 03:41:51 15° NE 03:41:51 15° NE
ATLAS 5 CENTAUR R/B 3.3 04:09:45 35° ENE 04:09:45 35° ENE 04:12:56 10° NE
Cosmos 1943 Rocket 2.9 04:15:06 49° E 04:15:06 49° E 04:19:46 10° NE
MOS 1 Rocket 4.3 04:13:10 10° NNE 04:17:25 50° NE 04:17:25 50° NE
ADEOS II 2.8 04:22:50 10° NNE 04:27:57 49° E 04:28:38 46° ESE
CZ-4B R/B 3.8 04:25:27 10° NNE 04:30:59 56° E 04:32:07 48° SE
Cosmos 2263 4.5 04:32:19 61° NNE 04:32:19 61° NNE 04:36:55 10° NNE
Lacrosse 5 rocket 3.2 04:44:18 24° NE 04:44:18 24° NE 04:46:32 10° E
Resurs 1-4 Rocket 4.2 04:49:25 10° NNW 04:50:35 14° NNW 04:50:35 14° NNW
Okean 2 Rocket 4.2 04:50:19 10° N 04:54:31 42° ENE 04:58:42 10° SSE
Lacrosse 5 1.8 04:55:46 81° NNE 04:55:46 81° NNE 05:00:41 10° NE
Cosmos 1703 Rocket 3.8 04:59:32 59° SE 04:59:59 64° E 05:04:21 10° NNE
Cosmos 1867 4.4 05:01:06 36° NNW 05:01:06 36° NNW 05:05:42 10° NNE
CZ-2D R/B 4.2 04:58:00 10° NNW 04:59:19 14° NNW 04:59:19 14° NNW
Cosmos 2297 Rocket 4.3 04:58:17 10° N 05:02:51 24° NE 05:07:22 10° E
Meteor 1-14 Rocket 4.3 04:59:52 10° N 05:05:44 80° ENE 05:11:25 10° SSE
Cosmos 1624 Rocket 4.5 05:08:31 45° NW 05:08:31 45° NW 05:13:05 10° NNE
Cosmos 2056 Rocket 3.9 05:10:27 45° NW 05:10:27 45° NW 05:14:59 10° NNE
Cosmos 972 Rocket 4.5 05:12:43 45° NW 05:12:43 45° NW 05:17:53 10° N
Cosmos 1954 Rocket 3.9 05:10:52 34° NW 05:13:06 66° WSW 05:18:22 10° S
Cosmos 1656 Rocket 3.8 05:11:37 29° SSW 05:14:36 74° ESE 05:20:17 10° NNE
CZ-4C R/B 2.4 05:13:00 36° SSW 05:15:14 69° SE 05:21:16 10° NE
Meteor PRIRODA 3.7 05:11:37 10° NNE 05:15:16 73° E 05:15:16 73° E
PAYLOAD B 4.2 05:10:29 10° N 05:15:57 61° WNW 05:17:06 50° WSW
IRS-1C Rocket 4.1 05:11:31 10° N 05:16:42 58° WNW 05:17:18 54° W
ADEOS Rocket 4.2 05:13:16 10° N 05:18:21 26° NW 05:18:21 26° NW
GEOS 3 Rocket 3.6 05:15:01 10° SSE 05:19:59 56° SW 05:20:40 51° W
CZ-4B DEB 4.2 05:14:42 10° N 05:20:10 62° WNW 05:21:49 43° SW
Okean O Rocket 2.7 05:16:40 10° N 05:19:20 30° NNW 05:19:20 30° NNW
Cosmos 2219 3.1 05:15:35 10° NNW 05:21:18 83° WSW 05:26:56 10° SSE
Meteor 1-26 Rocket 4.1 05:18:35 21° SSW 05:22:30 82° W 05:28:07 10° N
S3M 4.3 05:16:48 10° S 05:23:04 68° E 05:29:17 10° NNE
Cosmos 2369 Rocket 3.2 05:23:10 29° NW 05:23:10 29° NW 05:28:05 10° N
Meteor 1-31 Rocket 3.1 05:19:28 10° NNE 05:23:21 65° E 05:25:38 23° S
Cosmos 1420 Rocket 4.3 05:19:14 15° S 05:23:26 65° ESE 05:28:35 10° NNE
Cosmos 2227 Rocket 3.5 05:18:21 10° NNW 05:23:40 39° NE 05:28:58 10° ESE
Meteor 1-25 Rocket 4.3 05:18:53 10° N 05:24:46 81° E 05:30:37 10° SSE
USA 234 3.6 05:21:18 10° ENE 05:27:47 62° SE 05:32:31 19° SW
COSMO-SKYMED 1 3.5 05:24:28 10° SE 05:28:39 49° ENE 05:32:51 10° N
Cosmos 1553 Rocket 4.1 05:22:49 10° S 05:29:01 78° E 05:35:22 10° N
Meteor 2-10 Rocket 3.4 05:35:44 27° SSW 05:38:23 60° WNW 05:43:28 10° N
ERS-2 2.6 05:35:31 10° N 05:38:43 44° NW 05:38:43 44° NW
Okean 1-7 2.8 05:37:17 21° SSW 05:40:04 73° W 05:44:20 10° N
Cosmos 2221 Rocket 3.6 05:39:17 25° SSW 05:41:52 61° WNW 05:46:24 10° N
PSLV R/B 4.4 05:46:16 10° N 05:49:44 29° WNW 05:49:44 29° WNW
ATLAS 3B R/B 3.5 05:42:52 10° SSW 05:50:12 57° ESE 05:57:18 10° NE
Cosmos 1452 Rocket 3.7 05:48:20 27° SW 05:50:58 49° WNW 05:56:08 10° NNE
Thor Agena Rocket 3.6 05:46:18 10° S 05:51:25 56° WSW 05:56:29 10° NNW
ATLAS 5 CENTAUR R/B 2.9 05:51:18 25° WNW 05:52:54 30° NNW 05:57:37 10° NNE
Abrixas 2.6 05:55:34 46° NW 05:56:09 60° N 05:59:01 10° E
Meteor 1-10 Rocket 4.4 05:51:35 10° S 05:57:09 76° E 06:02:51 10° NNE
Cosmos 1943 Rocket 3.1 05:56:39 25° W 05:58:24 29° NW 06:03:15 10° N
SKYMED 3 4.5 05:54:16 10° SSE 05:58:37 83° WSW 06:02:59 10° NNW
Cosmos 1741 Rocket 4.1 05:55:15 10° NNW 06:00:22 54° WSW 06:05:29 10° S
Cosmos 1782 Rocket 4.3 05:56:46 10° NNW 06:00:40 30° W 06:04:32 10° SSW
Feng Yun 1-1 Rocket 4.4 05:57:10 10° N 06:02:58 63° WNW 06:08:49 10° SSW
Cosmos 1300 Rocket 4.3 06:01:53 10° N 06:06:17 58° ENE 06:10:36 10° SSE
Meteor 1-28 Rocket 3.1 06:02:56 10° SSE 06:06:40 87° E 06:10:27 10° NNW
ADEOS II 3.1 06:03:05 10° N 06:07:25 26° WNW 06:09:35 20° W
SJ-6F 4.5 06:06:48 10° N 06:10:52 55° WNW 06:14:52 10° SSW
CZ-4B R/B 4.3 06:06:39 10° N 06:11:12 26° WNW 06:14:01 18° W
Cosmos 1140 Rocket 4.3 06:07:13 10° NW 06:11:36 27° W 06:15:57 10° SSW
Radarsat Rocket 4.3 06:05:26 10° NNE 06:12:48 88° ESE 06:19:13 10° SSW
Cosmos 1386 Rocket 4.4 06:09:56 10° NNW 06:15:54 63° W 06:21:56 10° S
Cosmos 1745 Rocket 4.1 06:10:06 10° NNW 06:16:00 49° W 06:21:50 10° SSW
SKYMED 2 3.6 06:12:26 10° S 06:16:41 54° W 06:20:58 10° NNW
Cosmos 1536 4.1 06:13:41 10° N 06:17:34 45° ENE 06:21:25 10° SSE
Cosmos 2315 Rocket 4.4 06:12:57 10° S 06:19:16 70° E 06:25:35 10° NNE
Okean-O 3.3 06:16:41 10° N 06:20:40 33° WNW 06:24:38 10° SW
Tiangong 1 1.9 06:19:40 20° WSW 06:21:15 36° S 06:23:59 10° ESE
Lacrosse 5 rocket 1.0 06:20:02 16° WNW 06:22:49 60° SW 06:26:22 10° SE
Cosmos 2082 3.7 06:20:06 10° NNW 06:25:49 88° WSW 06:31:28 10° SSE
Cosmos 1674 Rocket 3.6 06:22:53 10° S 06:27:18 89° ESE 06:31:48 10° N
Meteor 1-27 Rocket 3.9 06:25:47 10° S 06:31:36 87° E 06:37:33 10° NNE
USA 81 4.2 06:26:44 10° SSW 06:31:51 50° W 06:36:59 10° N
Okean 2 Rocket 4.3 06:29:08 10° NW 06:32:17 20° W 06:35:27 10° SW
Cosmos 1606 3.0 06:29:05 10° SSW 06:32:48 44° WNW 06:36:36 10° N
Cosmos 1602 3.7 06:29:18 10° NNW 06:33:16 66° W 06:37:10 10° S
Lacrosse 5 2.9 06:34:59 12° WNW 06:39:08 31° NNW 06:43:40 10° NE
PAYLOAD A 4.2 06:35:46 10° NNE 06:40:31 72° ESE 06:45:22 10° S
Cosmos 1782 3.7 06:38:59 10° SW 06:42:26 28° WNW 06:45:56 10° NNW
CZ-3B DEB 1.7 06:43:03 10° NNW 06:44:03 16° NNE 06:45:13 10° ENE
Cosmos 2369 3.9 06:38:49 10° SSW 06:44:27 78° ESE 06:50:07 10° NNE
Okean 1 Rocket 3.0 06:41:42 10° NNW 06:46:07 73° W 06:50:28 10° S
Cosmos 2297 Rocket 2.2 06:41:48 10° NNW 06:47:26 70° WSW 06:53:02 10° SSE
Cosmos 1607 3.9 06:42:31 10° SW 06:48:37 69° NW 06:54:49 10° NNE
SMAP 4.3 06:44:52 10° NNE 06:49:23 47° E 06:53:51 10° S
CSL-04 Debris 4.3 06:47:58 10° NNE 06:53:25 88° ESE 06:58:48 10° SSW
Helios 1B rocket 3.9 06:52:33 10° SE 06:56:27 43° ENE 07:00:23 10° N
Ariane Rocket 3.0 06:51:50 10° N 06:56:54 65° WNW 07:01:54 10° SSW
Cosmos 2278 3.7 06:54:50 10° SSW 07:00:29 78° WNW 07:06:11 10° NNE
